EW7448 Weather Reports


Display with metric or nautical units.
time (UTC)temp
F
wind
direction
speed
MPH
gust
MPH
rain 1hr
in
rain 24hr
in
rain mn
in
humidity
%
barometer
mb
20260505124506 77 108 0.0 8.0 0.00 0.00 0.00 77 1013.9
20260505123002 76 163 2.0 8.0 0.00 0.00 0.00 78 1014.1
20260505121558 75 44 2.0 10.0 0.00 0.00 0.00 81 1014.2
20260505120053 73 63 0.0 2.0 0.00 0.00 0.00 84 1013.9
20260505114550 72 41 0.0 4.0 0.00 0.00 0.00 86 1013.5
20260505113051 70 59 0.0 2.0 0.00 0.00 0.00 89 1013.5
20260505111546 68 133 0.0 1.0 0.00 0.00 0.00 92 1013.2
20260505101544 65 149 0.0 0.0 0.00 0.00 0.00 94 1012.7
20260505100044 65 150 0.0 0.0 0.00 0.00 0.00 93 1012.5
20260505094544 66 149 0.0 0.0 0.00 0.00 0.00 93 1012.4
20260505093041 66 150 0.0 0.0 0.00 0.00 0.00 93 1012.2
20260505091544 66 150 0.0 0.0 0.00 0.00 0.00 93 1012.4
20260505090035 67 149 0.0 0.0 0.00 0.00 0.00 92 1012.2
20260505084533 67 149 0.0 0.0 0.00 0.00 0.00 91 1012.1
20260505083033 68 150 0.0 0.0 0.00 0.00 0.00 89 1012.0
20260505081528 68 149 0.0 0.0 0.00 0.00 0.00 88 1012.1
20260505080026 69 150 0.0 0.0 0.00 0.00 0.00 87 1012.0
20260505074523 69 149 0.0 0.0 0.00 0.00 0.00 86 1012.0
20260505073021 70 149 0.0 0.0 0.00 0.00 0.00 85 1012.3
20260505071518 70 149 0.0 0.0 0.00 0.00 0.00 85 1012.4
20260505070017 71 139 0.0 1.0 0.00 0.00 0.00 85 1012.4
20260505064516 71 78 0.0 2.0 0.00 0.00 0.00 85 1012.5
20260505063016 71 110 0.0 1.0 0.00 0.00 0.00 86 1012.7
20260505061512 71 123 0.0 1.0 0.00 0.00 0.00 85 1012.8
20260505060010 71 153 0.0 2.0 0.00 0.00 0.00 85 1012.9
20260505054509 71 101 0.0 1.0 0.00 0.00 0.00 85 1013.5
20260505053008 71 120 0.0 1.0 0.00 0.00 0.00 85 1013.4
20260505051522 71 43 0.0 1.0 0.00 0.00 0.00 85 1013.4
20260505041501 71 127 0.0 1.0 0.00 0.00 0.00 85 1013.7
20260505040104 71 108 0.0 1.0 0.00 0.00 0.00 85 1013.8
20260505034557 71 141 0.0 1.0 0.00 0.00 0.00 85 1013.9
20260505033057 72 155 0.0 0.0 0.00 0.00 0.00 85 1013.9
20260505031559 72 176 0.0 3.0 0.00 0.00 0.00 84 1014.1
20260505030055 72 117 0.0 2.0 0.00 0.00 0.00 84 1014.1
20260505024555 72 128 0.0 2.0 0.00 0.00 0.00 85 1014.0
20260505023056 72 103 0.0 2.0 0.00 0.00 0.00 84 1014.0
20260505021553 72 60 0.0 2.0 0.00 0.00 0.00 83 1014.0
20260505014552 73 127 0.0 3.0 0.00 0.00 0.00 83 1013.6
20260505013049 73 43 0.0 2.0 0.00 0.00 0.00 83 1014.1
20260505011551 73 147 0.0 3.0 0.00 0.00 0.00 83 1013.9
20260505004547 73 354 0.0 3.0 0.00 0.00 0.00 84 1013.5
20260505003051 73 58 1.0 6.0 0.00 0.00 0.00 85 1013.3
20260505001545 73 61 1.0 6.0 0.00 0.00 0.00 85 1013.3
20260505000048 74 55 0.0 8.0 0.00 0.00 0.00 83 1013.0
20260504234545 74 154 1.0 5.0 0.00 0.00 0.00 81 1012.8
20260504233102 75 45 0.0 8.0 0.00 0.00 0.00 80 1012.8
20260504231547 75 278 0.0 8.0 0.00 0.00 0.00 78 1012.7
20260504230053 75 67 1.0 10.0 0.00 0.00 0.00 78 1012.8
20260504224542 75 49 0.0 6.0 0.00 0.00 0.00 78 1012.8
20260504223042 75 59 2.0 11.0 0.00 0.00 0.00 77 1012.9
20260504221540 75 43 3.0 12.0 0.00 0.00 0.00 77 1012.9
20260504220040 75 39 4.0 12.0 0.00 0.00 0.00 77 1012.9
20260504214539 76 46 2.0 13.0 0.00 0.00 0.00 76 1013.0
20260504213039 76 235 3.0 12.0 0.00 0.00 0.00 75 1013.0
20260504211539 76 28 5.0 13.0 0.00 0.00 0.00 75 1013.1
20260504210043 78 179 1.0 11.0 0.00 0.00 0.00 74 1013.0
20260504204540 78 133 3.0 14.0 0.00 0.00 0.00 75 1013.1
20260504203051 77 60 3.0 13.0 0.00 0.00 0.00 74 1013.3
20260504201535 77 182 3.0 10.0 0.00 0.00 0.00 76 1013.4
20260504200034 77 72 3.0 10.0 0.00 0.00 0.00 75 1013.5
20260504194535 77 69 6.0 14.0 0.00 0.00 0.00 74 1013.7
20260504193033 78 106 4.0 13.0 0.00 0.00 0.00 73 1013.8
20260504191532 78 76 3.0 17.0 0.00 0.00 0.00 74 1013.8
20260504190037 77 212 5.0 13.0 0.00 0.00 0.00 76 1014.1
20260504184534 78 34 3.0 11.0 0.00 0.00 0.00 74 1014.4
20260504183034 78 44 2.0 14.0 0.00 0.00 0.00 76 1014.5
20260504181529 78 89 5.0 14.0 0.00 0.00 0.00 75 1014.4
20260504180029 78 98 2.0 16.0 0.00 0.00 0.00 75 1014.6
20260504174528 78 356 4.0 13.0 0.00 0.00 0.00 76 1014.7
20260504173027 76 39 5.0 14.0 0.00 0.00 0.00 77 1014.7
20260504171526 77 67 6.0 17.0 0.00 0.00 0.00 75 1014.7
20260504170125 77 345 5.0 16.0 0.00 0.00 0.00 77 1014.9